Stations météo

réclame
Mon MeteoGroup
Bolzano, Italie (16020): Température de l'air & dewpoint: 16.10.2017 06:00:00 - 22.10.2017 06:00:00 (CEST)Bolzano, Italie (16020): Vitesse du vent: 16.10.2017 06:00:00 - 22.10.2017 06:00:00 (CEST)Bolzano, Italie (16020): Direction du vent: 16.10.2017 06:00:00 - 22.10.2017 06:00:00 (CEST)Bolzano, Italie (16020): reduced air pressure: 16.10.2017 06:00:00 - 22.10.2017 06:00:00 (CEST)Bolzano, Italie (16020): visibility: 16.10.2017 06:00:00 - 22.10.2017 06:00:00 (CEST)Bolzano, Italie (16020): Quantités de précipitations: 16.10.2017 06:00:00 - 22.10.2017 06:00:00 (CEST)
Date & Time tt [°C] td [°C] ff [km/h] ff [knt] dd ppp [hPa] vv [km] rr [mm]
22.10.2017 06:00:00 - - - - - - - -
22.10.2017 05:00:00 10,9 10,7 4 2 WSW 1016,0 - -
22.10.2017 04:00:00 - - - - - - - -
22.10.2017 03:00:00 - - - - - - - -
22.10.2017 02:00:00 12,4 9,3 5 3 N 1018,5 - 0,0
22.10.2017 01:00:00 - - - - - - - -
22.10.2017 00:00:00 - - - - - - - -
21.10.2017 23:00:00 10,8 9,7 0 0 N 1019,2 6 -
21.10.2017 22:00:00 10,0 8,0 4 2 - - 6 -
21.10.2017 21:00:00 11,0 9,0 2 1 - - 6 -
21.10.2017 20:00:00 12,3 9,8 5 3 - 1018,8 7 0,0
21.10.2017 19:00:00 14,0 10,0 8 4 NW - 8 -
21.10.2017 18:00:00 16,0 10,0 0 0 N - 7 -
21.10.2017 17:00:00 17,7 9,4 2 1 - 1017,5 8 -
21.10.2017 16:00:00 18,0 9,0 4 2 - - 8 -
21.10.2017 15:00:00 19,0 9,0 2 1 SSW - 6 -
21.10.2017 14:00:00 16,9 8,5 0 0 N 1018,9 5 0,0
21.10.2017 13:00:00 15,0 9,0 4 2 SE - 5 -
21.10.2017 12:00:00 13,0 8,0 0 0 N - 6 -
21.10.2017 11:00:00 12,3 8,5 0 0 N 1022,3 7 -
21.10.2017 10:00:00 10,0 9,0 0 0 N - 5 -
21.10.2017 09:00:00 8,0 8,0 0 0 N - 4,5 -
21.10.2017 08:00:00 6,7 6,7 0 0 N 1022,5 2,5 0,0
21.10.2017 07:00:00 7,0 6,0 0 0 N - 2,5 -
21.10.2017 06:00:00 - - - - - - - -
21.10.2017 05:00:00 6,8 6,5 2 1 SE 1022,1 - -
21.10.2017 04:00:00 - - - - - - - -
21.10.2017 03:00:00 - - - - - - - -
21.10.2017 02:00:00 8,7 7,9 2 1 N 1022,2 - 0,0
21.10.2017 01:00:00 - - - - - - - -
21.10.2017 00:00:00 - - - - - - - -
20.10.2017 23:00:00 8,8 8,1 0 0 N 1021,8 10 -
20.10.2017 22:00:00 10,0 8,0 4 2 - - 10 -
20.10.2017 21:00:00 11,0 8,0 0 0 N - 10 -
20.10.2017 20:00:00 11,3 8,3 0 0 N 1020,2 10 0,0
20.10.2017 19:00:00 12,0 9,0 0 0 N - 10 -
20.10.2017 18:00:00 17,0 10,0 0 0 N - 10 -
20.10.2017 17:00:00 19,0 7,1 0 0 N 1017,1 10 -
20.10.2017 16:00:00 20,0 8,0 8 4 S - 10 -
20.10.2017 15:00:00 19,0 8,0 5 3 S - 10 -
20.10.2017 14:00:00 18,4 7,0 5 3 SSW 1018,1 10 0,0
20.10.2017 13:00:00 16,0 7,0 2 1 SE - 10 -
20.10.2017 12:00:00 14,0 7,0 2 1 ENE - 10 -
20.10.2017 11:00:00 12,7 6,3 2 1 ENE 1021,0 10 -
20.10.2017 10:00:00 10,0 7,0 2 1 N - 10 -
20.10.2017 09:00:00 5,0 5,0 2 1 W - 10 -
20.10.2017 08:00:00 5,9 5,7 0 0 N 1021,6 10 0,0
20.10.2017 07:00:00 6,0 5,0 0 0 N - 10 -
20.10.2017 06:00:00 - - - - - - - -
20.10.2017 05:00:00 5,4 5,1 4 2 NNW 1021,4 - -
20.10.2017 04:00:00 - - - - - - - -
20.10.2017 03:00:00 - - - - - - - -
20.10.2017 02:00:00 7,0 6,6 2 1 N 1020,8 - 0,0
20.10.2017 01:00:00 - - - - - - - -
20.10.2017 00:00:00 - - - - - - - -
19.10.2017 23:00:00 7,9 6,0 2 1 - 1020,3 10 -
19.10.2017 22:00:00 10,0 7,0 0 0 N - 10 -
19.10.2017 21:00:00 10,0 7,0 0 0 N - 10 -
19.10.2017 20:00:00 11,6 7,3 2 1 - 1018,4 10 0,0
19.10.2017 19:00:00 13,0 8,0 4 2 - - 10 -
19.10.2017 18:00:00 17,0 8,0 0 0 N - 10 -
19.10.2017 17:00:00 19,9 8,3 4 2 - 1015,4 10 -
19.10.2017 16:00:00 20,0 7,0 4 2 - - 10 -
19.10.2017 15:00:00 19,0 7,0 0 0 N - 10 -
19.10.2017 14:00:00 17,8 5,7 4 2 - 1017,4 10 0,0
19.10.2017 13:00:00 16,0 8,0 2 1 - - 10 -
19.10.2017 12:00:00 15,0 7,0 0 0 N - 10 -
19.10.2017 11:00:00 13,4 5,5 0 0 N 1020,7 10 -
19.10.2017 10:00:00 10,0 7,0 0 0 N - 10 -
19.10.2017 09:00:00 6,0 4,0 4 2 - - 10 -
19.10.2017 08:00:00 4,8 4,3 0 0 N 1021,2 10 0,0
19.10.2017 07:00:00 5,0 5,0 0 0 N - 10 -
19.10.2017 06:00:00 - - - - - - - -
19.10.2017 05:00:00 5,4 4,5 0 0 N 1021,0 - -
19.10.2017 04:00:00 - - - - - - - -
19.10.2017 03:00:00 - - - - - - - -
19.10.2017 02:00:00 6,8 6,1 2 1 NW 1021,0 - 0,0
19.10.2017 01:00:00 - - - - - - - -
19.10.2017 00:00:00 - - - - - - - -
18.10.2017 23:00:00 8,2 6,2 0 0 N 1020,1 10 -
18.10.2017 22:00:00 9,0 7,0 4 2 - - 10 -
18.10.2017 21:00:00 11,0 8,0 2 1 - - 10 -
18.10.2017 20:00:00 10,5 7,9 2 1 - 1018,2 10 0,0
18.10.2017 19:00:00 14,0 9,0 4 2 NNW - 10 -
18.10.2017 18:00:00 18,0 9,0 5 3 WNW - 10 -
18.10.2017 17:00:00 20,9 6,6 5 3 - 1015,7 10 -
18.10.2017 16:00:00 22,0 6,0 5 3 - - 10 -
18.10.2017 15:00:00 20,0 7,0 5 3 - - 10 -
18.10.2017 14:00:00 20,1 6,4 4 2 SW 1017,4 10 0,0
18.10.2017 13:00:00 18,0 6,0 4 2 - - 10 -
18.10.2017 12:00:00 15,0 7,0 2 1 - - 10 -
18.10.2017 11:00:00 15,2 7,3 4 2 - 1021,1 10 -
18.10.2017 10:00:00 10,0 8,0 0 0 N - 10 -
18.10.2017 09:00:00 6,0 5,0 0 0 N - 10 -
18.10.2017 08:00:00 4,5 4,2 0 0 N 1023,0 10 0,0
18.10.2017 07:00:00 6,0 5,0 0 0 N - 10 -
18.10.2017 06:00:00 - - - - - - - -
18.10.2017 05:00:00 6,6 5,6 2 1 NNW 1023,1 - -
18.10.2017 04:00:00 - - - - - - - -
18.10.2017 03:00:00 - - - - - - - -
18.10.2017 02:00:00 7,6 6,9 2 1 S 1023,9 - 0,0
18.10.2017 01:00:00 - - - - - - - -
18.10.2017 00:00:00 - - - - - - - -
17.10.2017 23:00:00 8,9 7,0 0 0 N 1024,5 10 -
17.10.2017 22:00:00 10,0 9,0 0 0 N - 10 -
17.10.2017 21:00:00 12,0 9,0 0 0 N - 10 -
17.10.2017 20:00:00 12,1 9,2 2 1 - 1023,5 10 0,0
17.10.2017 19:00:00 15,0 10,0 4 2 - - 10 -
17.10.2017 18:00:00 19,0 11,0 0 0 N - 10 -
17.10.2017 17:00:00 20,7 8,8 5 3 S 1022,2 10 -
17.10.2017 16:00:00 21,0 8,0 5 3 S - 10 -
17.10.2017 15:00:00 21,0 7,0 4 2 - - 10 -
17.10.2017 14:00:00 20,3 7,2 0 0 N 1024,1 10 0,0
17.10.2017 13:00:00 19,0 6,0 4 2 - - 10 -
17.10.2017 12:00:00 17,0 7,0 4 2 - - 10 -
17.10.2017 11:00:00 15,2 6,4 0 0 N 1028,1 10 -
17.10.2017 10:00:00 12,0 8,0 2 1 - - 10 -
17.10.2017 09:00:00 6,0 4,0 0 0 N - 10 -
17.10.2017 08:00:00 5,9 5,2 0 0 N 1029,7 10 0,0
17.10.2017 07:00:00 6,0 5,0 4 2 - - 10 -
17.10.2017 06:00:00 - - - - - - - -
17.10.2017 05:00:00 6,6 5,8 2 1 E 1029,3 - -
17.10.2017 04:00:00 - - - - - - - -
17.10.2017 03:00:00 - - - - - - - -
17.10.2017 02:00:00 8,7 6,8 2 1 NNE 1029,6 - 0,0
17.10.2017 01:00:00 - - - - - - - -
17.10.2017 00:00:00 - - - - - - - -
16.10.2017 23:00:00 10,3 8,0 0 0 N 1029,3 10 -
16.10.2017 22:00:00 11,0 9,0 0 0 N - 10 -
16.10.2017 21:00:00 11,0 8,0 2 1 - - 10 -
16.10.2017 20:00:00 13,2 8,7 4 2 NW 1027,6 10 0,0
16.10.2017 19:00:00 15,0 11,0 4 2 N - 10 -
16.10.2017 18:00:00 21,0 10,0 4 2 - - 10 -
16.10.2017 17:00:00 23,4 9,3 4 2 - 1025,1 10 -
16.10.2017 16:00:00 24,0 6,0 4 2 - - 10 -
16.10.2017 15:00:00 22,0 6,0 5 3 - - 10 -
16.10.2017 14:00:00 21,2 7,2 4 2 - 1026,8 10 0,0
16.10.2017 13:00:00 19,0 7,0 4 2 - - 10 -
16.10.2017 12:00:00 18,0 7,0 4 2 - - 10 -
16.10.2017 11:00:00 15,9 6,2 4 2 - 1030,3 10 -
16.10.2017 10:00:00 13,0 8,0 2 1 ENE - 10 -
16.10.2017 09:00:00 7,0 7,0 0 0 N - 10 -
16.10.2017 08:00:00 5,1 4,6 0 0 N 1031,6 10 0,0
16.10.2017 07:00:00 6,0 5,0 4 2 - - 10 -
16.10.2017 06:00:00 - - - - - - - -

tt = Température de l'air
td = dewpoint
ff = Vitesse du vent
dd = Direction du vent
ppp = reduced air pressure
vv = visibility
rr = Quantités de précipitations

stations d'obs. à proximité